I1GXV Weather Reports


time (UTC)temp
C
wind
direction
speed
KPH
gust
KPH
rain 1hr
cm
rain 24hr
cm
rain mn
cm
humidity
%
barometer
mb
20260507033007 11 53 8.0 20.9 0.00 2.18 0.66 94 985.9
20260507030007 11 55 8.0 20.9 0.00 2.18 0.66 95 986.0
20260507023006 11 47 9.7 19.3 0.00 2.21 0.66 95 986.0
20260507020009 11 51 6.4 22.5 0.00 2.21 0.66 95 986.1
20260507013006 11 42 11.3 24.1 0.03 2.21 0.66 96 985.9
20260507010006 11 51 6.4 16.1 0.43 2.21 0.66 96 985.8
20260507003007 11 34 8.0 24.1 0.46 2.18 0.64 95 985.7
20260507000011 11 35 11.3 20.9 0.20 1.78 0.23 94 985.8
20260506233014 11 37 12.9 20.9 0.18 1.73 0.18 94 985.7
20260506230012 11 47 9.7 19.3 0.03 1.63 0.03 93 985.5
20260506223014 12 50 8.0 16.1 0.03 1.70 0.00 93 985.6
20260506220011 12 48 8.0 20.9 0.03 1.70 0.00 90 985.5
20260506210010 12 47 4.8 16.1 0.00 1.68 1.68 88 985.3
20260506203013 13 49 6.4 16.1 0.00 1.68 1.68 89 985.2
20260506200010 13 26 4.8 12.9 0.00 1.68 1.68 89 984.7
20260506193010 12 58 3.2 9.7 0.00 1.68 1.68 90 984.6
20260506190014 12 34 3.2 14.5 0.00 1.70 1.68 90 984.0
20260506173009 13 306 3.2 9.7 0.00 1.88 1.65 79 982.7
20260506170011 15 47 4.8 20.9 0.00 2.01 1.65 71 982.4
20260506163011 15 31 12.9 32.2 0.00 2.13 1.65 70 982.0
20260506153008 15 50 20.9 37.0 0.00 2.24 1.65 68 981.8
20260506150012 15 46 20.9 35.4 0.00 2.24 1.65 69 981.9
20260506140009 14 50 14.5 33.8 0.00 2.24 1.65 78 982.1
20260506133011 15 46 14.5 27.4 0.00 2.24 1.65 73 982.6
20260506130015 13 56 9.7 20.9 0.00 2.24 1.65 84 982.3
20260506123012 11 40 9.7 29.0 0.79 2.24 1.65 94 982.5
20260506120018 11 297 6.4 32.2 0.79 2.24 1.65 92 982.0
20260506113014 15 210 8.0 38.6 0.00 1.47 0.86 85 981.8
20260506110010 15 146 20.9 37.0 0.00 1.52 0.86 85 981.4
20260506103009 14 158 8.0 27.4 0.00 1.52 0.86 90 981.9
20260506100009 14 146 16.1 37.0 0.00 1.57 0.86 89 982.0
20260506093010 13 136 20.9 37.0 0.00 1.57 0.86 94 981.8
20260506090009 13 139 17.7 33.8 0.00 1.57 0.86 97 981.7
20260506083011 12 141 27.4 38.6 0.00 1.63 0.86 99 982.0
20260506073010 12 85 14.5 22.5 0.00 1.68 0.86 99 982.4